カタログに戻る

PEGASUS DEB

運用中PO
NORAD 24126·DEBRIS·🇺🇸 United States

打ち上げ May 19, 1994 から Vandenberg Space Force Base

Loading…

次のパス (今後24時間)

TLE

最新Source: Space-Track

元期: Sep 14, 2026, 11:58 UTC

1 24126U 94029FZ  26257.49914562  .00002778  00000-0  53459-3 0  9994
2 24126  81.7961 256.8751 0265629 259.4313 271.3152 14.43210492566840

AllMySatでPEGASUS DEBをリアルタイム追跡

Download on the App Store